Find Kiku-1

NORAD ID: 8197 Int'l Des: 1975-082 Owner: NASDA Country: J operational
LEOCIRCULAR

Live Position

Loading 3D Globe...

About Kiku-1

Description loading...

Upcoming Passes

Passes for default location (London). Set your location on the main map for personalized predictions.

Altitude History

Loading altitude history...

Two-Line Element Set

1 8197U 75082A 26104.85061073 -.00000099 00000-0 34561-4 0 9992
2 8197 46.9871 136.6031 0085813 189.3142 341.1993 13.59601592513791
Epoch: Apr 14, 2026 • Age: 4 hours

Current Status

Altitude 1097.7 km
Velocity 7.28 km/s
Sub-Earth Point -9.16°S, 88.06°W
Type other

Most Searched